Terminal Aerodrome Forecast
Issued by NWS

Home | Current Version | Previous Version | Text Only | Print | Product List | Glossary On
Versions: 1 2 3 4 5 6 7 8 9 10 11 12 13 14 15 16 17 18 19 20 21 22 23 24 25 26 27 28 29 30 31 32 33 34 35 36 37 38 39
000
FTUS43 KPAH 040523
TAFOWB
TAF
KOWB 040523Z 0406/0506 36008KT 2SM -RA BR FEW004 BKN025
      TEMPO 0406/0410 3SM -RA OVC004
     FM041300 35010KT 3SM -PLSN BR OVC010
     FM041700 35012G18KT 2SM -SN BR OVC015
     FM050300 36012G17KT 4SM -SN BR OVC020=

USA.gov is the U.S. government's official web portal to all federal, state and local government web resources and services.